When you browse on this site, cookies collect data to enhance your experience and personalize the content and advertising you see.
Visit our Privacy Policy to learn more. By continuing to use the site, you agree to this use of cookies and data.
  • In Deutschland
  • Länderverzeichnis
  • Für 7 Tage
  • Wassertemperatur
  • Wetterkarte
  • Widgets
  • user-avatar
    Anmelden

    Stündliche Wetter Dorchester

    Heute, 15 September, Sonntag

    Zeit Temperatur Niederschläge Wind Luftdruck Luftfeuchtigkeit
    00:00 +13°C° 0 mm 2 m/S 766 mmHg 70%
    01:00 +13°C° 0 mm 2 m/S 765 mmHg 73%
    02:00 +12°C° 0 mm 2 m/S 765 mmHg 75%
    03:00 +12°C° 0 mm 2 m/S 764 mmHg 78%
    04:00 +12°C° 0 mm 2 m/S 764 mmHg 82%
    05:00 +10°C° 0 mm 2 m/S 764 mmHg 86%
    06:00 +10°C° 0 mm 2 m/S 764 mmHg 90%
    07:00 +13°C° 0 mm 2 m/S 764 mmHg 82%
    08:00 +16°C° 0 mm 2 m/S 764 mmHg 74%
    09:00 +18°C° 0 mm 2 m/S 764 mmHg 67%
    10:00 +19°C° 0 mm 2 m/S 764 mmHg 65%
    11:00 +21°C° 0 mm 2 m/S 764 mmHg 63%
    12:00 +23°C° 0 mm 2 m/S 763 mmHg 62%
    13:00 +24°C° 0 mm 3 m/S 763 mmHg 62%
    14:00 +24°C° 0 mm 3 m/S 763 mmHg 63%
    15:00 +25°C° 0 mm 4 m/S 763 mmHg 63%
    16:00 +22°C° 0 mm 3 m/S 762 mmHg 69%
    17:00 +21°C° 0 mm 3 m/S 762 mmHg 76%
    18:00 +20°C° 0 mm 2 m/S 762 mmHg 82%
    19:00 +19°C° 0 mm 2 m/S 762 mmHg 86%
    20:00 +18°C° 0 mm 2 m/S 762 mmHg 90%
    21:00 +17°C° 0 mm 2 m/S 762 mmHg 93%
    22:00 +16°C° 0 mm 2 m/S 762 mmHg 94%
    23:00 +16°C° 0 mm 2 m/S 762 mmHg 95%

    Morgen, 16 September, Montag

    Zeit Temperatur Niederschläge Wind Luftdruck Luftfeuchtigkeit
    00:00 +16°C° 0 mm 3 m/S 761 mmHg 95%
    01:00 +16°C° 0 mm 3 m/S 761 mmHg 95%
    02:00 +16°C° 0 mm 3 m/S 761 mmHg 95%
    03:00 +16°C° 0 mm 3 m/S 761 mmHg 94%
    04:00 +16°C° 0 mm 3 m/S 760 mmHg 94%
    05:00 +16°C° 0 mm 3 m/S 760 mmHg 93%
    06:00 +16°C° 0 mm 3 m/S 760 mmHg 93%
    07:00 +17°C° 0 mm 3 m/S 760 mmHg 90%
    08:00 +17°C° 0 mm 3 m/S 761 mmHg 88%
    09:00 +18°C° 0 mm 3 m/S 761 mmHg 86%
    10:00 +18°C° 0 mm 3 m/S 761 mmHg 85%
    11:00 +18°C° 0 mm 3 m/S 761 mmHg 84%
    12:00 +19°C° 0 mm 3 m/S 762 mmHg 82%
    13:00 +19°C° 0 mm 3 m/S 762 mmHg 81%
    14:00 +19°C° 0 mm 3 m/S 762 mmHg 80%
    15:00 +19°C° 0 mm 3 m/S 762 mmHg 78%
    16:00 +18°C° 0 mm 3 m/S 762 mmHg 78%
    17:00 +18°C° 0 mm 3 m/S 762 mmHg 78%
    18:00 +17°C° 0 mm 3 m/S 762 mmHg 77%
    19:00 +17°C° 0 mm 3 m/S 762 mmHg 76%
    20:00 +16°C° 0 mm 3 m/S 763 mmHg 74%
    21:00 +14°C° 0 mm 3 m/S 763 mmHg 73%
    22:00 +13°C° 0 mm 3 m/S 764 mmHg 77%
    23:00 +11°C° 0 mm 3 m/S 764 mmHg 81%

    übermorgen, 17 September, Dienstag

    Zeit Temperatur Niederschläge Wind Luftdruck Luftfeuchtigkeit
    00:00 +10°C° 0 mm 3 m/S 764 mmHg 85%
    01:00 +10°C° 0 mm 3 m/S 764 mmHg 87%
    02:00 +9°C° 0 mm 2 m/S 764 mmHg 89%
    03:00 +9°C° 0 mm 2 m/S 764 mmHg 91%
    04:00 +8°C° 0 mm 2 m/S 764 mmHg 92%
    05:00 +8°C° 0 mm 2 m/S 764 mmHg 92%
    06:00 +8°C° 0 mm 2 m/S 764 mmHg 93%
    07:00 +10°C° 0 mm 2 m/S 765 mmHg 85%
    08:00 +12°C° 0 mm 2 m/S 765 mmHg 77%
    09:00 +14°C° 0 mm 2 m/S 765 mmHg 69%
    10:00 +15°C° 0 mm 2 m/S 765 mmHg 64%
    11:00 +16°C° 0 mm 2 m/S 765 mmHg 60%
    12:00 +17°C° 0 mm 2 m/S 765 mmHg 55%
    13:00 +18°C° 0 mm 2 m/S 765 mmHg 53%
    14:00 +18°C° 0 mm 3 m/S 765 mmHg 51%
    15:00 +19°C° 0 mm 3 m/S 764 mmHg 49%
    16:00 +17°C° 0 mm 2 m/S 764 mmHg 54%
    17:00 +16°C° 0 mm 2 m/S 764 mmHg 59%
    18:00 +15°C° 0 mm 2 m/S 764 mmHg 65%
    19:00 +14°C° 0 mm 2 m/S 765 mmHg 67%
    20:00 +13°C° 0 mm 2 m/S 765 mmHg 70%
    21:00 +12°C° 0 mm 2 m/S 765 mmHg 72%
    22:00 +10°C° 0 mm 2 m/S 765 mmHg 74%
    23:00 +11°C° 0 mm 1 m/S 765 mmHg 77%

    18 September, Mittwoch

    Zeit Temperatur Niederschläge Wind Luftdruck Luftfeuchtigkeit
    00:00 +10°C° 0 mm 1 m/S 766 mmHg 79%
    01:00 +10°C° 0 mm 1 m/S 766 mmHg 81%
    02:00 +9°C° 0 mm 0 m/S 766 mmHg 82%
    03:00 +8°C° 0 mm 0 m/S 766 mmHg 83%
    04:00 +9°C° 0 mm 0 m/S 766 mmHg 83%
    05:00 +9°C° 0 mm 0 m/S 766 mmHg 82%
    06:00 +9°C° 0 mm 0 m/S 766 mmHg 82%
    07:00 +11°C° 0 mm 1 m/S 766 mmHg 77%
    08:00 +13°C° 0 mm 1 m/S 766 mmHg 72%
    09:00 +14°C° 0 mm 1 m/S 766 mmHg 67%
    10:00 +15°C° 0 mm 1 m/S 766 mmHg 64%
    11:00 +17°C° 0 mm 2 m/S 766 mmHg 62%
    12:00 +18°C° 0 mm 2 m/S 766 mmHg 59%
    13:00 +18°C° 0 mm 2 m/S 766 mmHg 61%
    14:00 +18°C° 0 mm 2 m/S 766 mmHg 62%
    15:00 +18°C° 0 mm 3 m/S 766 mmHg 64%
    16:00 +17°C° 0 mm 2 m/S 766 mmHg 69%
    17:00 +17°C° 0 mm 2 m/S 766 mmHg 73%
    18:00 +16°C° 0 mm 2 m/S 766 mmHg 78%
    19:00 +15°C° 0 mm 2 m/S 766 mmHg 80%
    20:00 +15°C° 0 mm 2 m/S 767 mmHg 82%
    21:00 +15°C° 0 mm 2 m/S 767 mmHg 83%
    22:00 +14°C° 0 mm 2 m/S 767 mmHg 86%
    23:00 +12°C° 0 mm 3 m/S 767 mmHg 89%

    19 September, Donnerstag

    Zeit Temperatur Niederschläge Wind Luftdruck Luftfeuchtigkeit
    00:00 +11°C° 0 mm 3 m/S 768 mmHg 92%
    01:00 +11°C° 0 mm 3 m/S 768 mmHg 91%
    02:00 +11°C° 0 mm 3 m/S 768 mmHg 90%
    03:00 +11°C° 0 mm 3 m/S 768 mmHg 90%
    04:00 +11°C° 0 mm 3 m/S 768 mmHg 90%
    05:00 +10°C° 0 mm 3 m/S 768 mmHg 90%
    06:00 +10°C° 0 mm 3 m/S 769 mmHg 91%
    07:00 +11°C° 0 mm 3 m/S 769 mmHg 83%
    08:00 +12°C° 0 mm 4 m/S 769 mmHg 75%
    09:00 +13°C° 0 mm 4 m/S 770 mmHg 67%
    10:00 +14°C° 0 mm 4 m/S 770 mmHg 61%
    11:00 +15°C° 0 mm 4 m/S 770 mmHg 55%
    12:00 +17°C° 0 mm 4 m/S 770 mmHg 48%
    13:00 +17°C° 0 mm 4 m/S 770 mmHg 47%
    14:00 +17°C° 0 mm 3 m/S 770 mmHg 46%
    15:00 +18°C° 0 mm 3 m/S 770 mmHg 45%
    16:00 +16°C° 0 mm 3 m/S 770 mmHg 50%
    17:00 +14°C° 0 mm 3 m/S 770 mmHg 55%
    18:00 +14°C° 0 mm 2 m/S 770 mmHg 60%
    19:00 +12°C° 0 mm 3 m/S 770 mmHg 65%
    20:00 +11°C° 0 mm 3 m/S 771 mmHg 69%
    21:00 +10°C° 0 mm 3 m/S 771 mmHg 73%
    22:00 +9°C° 0 mm 2 m/S 771 mmHg 75%
    23:00 +9°C° 0 mm 2 m/S 771 mmHg 78%

    20 September, Freitag

    Zeit Temperatur Niederschläge Wind Luftdruck Luftfeuchtigkeit
    00:00 +10°C° 0 mm 1 m/S 771 mmHg 80%
    01:00 +9°C° 0 mm 1 m/S 771 mmHg 80%
    02:00 +9°C° 0 mm 1 m/S 770 mmHg 80%
    03:00 +9°C° 0 mm 1 m/S 770 mmHg 81%
    04:00 +9°C° 0 mm 1 m/S 770 mmHg 82%
    05:00 +8°C° 0 mm 1 m/S 770 mmHg 83%
    06:00 +8°C° 0 mm 1 m/S 769 mmHg 84%
    07:00 +10°C° 0 mm 1 m/S 769 mmHg 77%
    08:00 +12°C° 0 mm 2 m/S 769 mmHg 71%
    09:00 +14°C° 0 mm 2 m/S 769 mmHg 64%
    10:00 +15°C° 0 mm 2 m/S 769 mmHg 60%
    11:00 +17°C° 0 mm 3 m/S 768 mmHg 55%
    12:00 +18°C° 0 mm 3 m/S 768 mmHg 51%
    13:00 +18°C° 0 mm 3 m/S 767 mmHg 50%
    14:00 +19°C° 0 mm 3 m/S 766 mmHg 50%
    15:00 +19°C° 0 mm 3 m/S 766 mmHg 50%
    16:00 +18°C° 0 mm 3 m/S 765 mmHg 56%
    17:00 +16°C° 0 mm 3 m/S 764 mmHg 61%
    18:00 +13°C° 0 mm 3 m/S 764 mmHg 67%
    19:00 +12°C° 0 mm 3 m/S 764 mmHg 68%
    20:00 +11°C° 0 mm 3 m/S 763 mmHg 69%
    21:00 +10°C° 0 mm 3 m/S 763 mmHg 71%
    22:00 +10°C° 0 mm 3 m/S 762 mmHg 73%
    23:00 +10°C° 0 mm 3 m/S 762 mmHg 76%
    Mehr zeigen